Regional Weather Roundup
Issued by NWS Charleston, SC

Current Version | Previous Version | Graphics & Text | Print | Product List | Glossary On
Versions: 1 2 3 4 5 6 7 8 9 10 11 12 13 14 15 16 17 18 19 20 21 22 23 24 25 26 27 28 29 30 31 32 33 34 35 36 37 38 39 40 41 42 43 44 45 46 47 48 49 50
000 ASUS42 KCHS 050826 RWRCHS REGIONAL WEATHER ROUNDUP NATIONAL WEATHER SERVICE CHARLESTON SC 300 AM EST THU MAR 05 2015 NOTE: "FAIR" INDICATES FEW OR NO CLOUDS BELOW 12,000 FEET WITH NO SIGNIFICANT WEATHER AND/OR OBSTRUCTIONS TO VISIBILITY. NOT ALL STATIONS ARE QUALITY CONTROLLED BY THE NATIONAL WEATHER SERVICE. USE DATA WITH CAUTION...ESPECIALLY DEWPOINT OBSERVATIONS. SCZ027-030-031-034>040-042>050-050900- ...SOUTHEAST SOUTH CAROLINA... CITY SKY/WX TMP DP RH WIND PRES REMARKS N CHARLESTON PTCLDY 61 59 93 S9 29.99F WATERFRONT PRK N/A 61 N/A N/A SW9G15 N/A MOUNT PLEASANT PTSUNNY 64 61 88 SW5 29.99F PINOPOLIS N/A 70 63 78 S9 29.87 MONCKS CORNER FAIR 66 61 82 SW7 29.97S SUMMERVILLE FAIR 63 63 100 S6 29.98S BEAUFORT MCAS CLEAR 60 57 89 S3 29.99F BEAUFORT ARPT PTSUNNY 59 59 100 S3 29.99F HILTON HEAD IS CLEAR 61 59 94 S5 30.01F WALTERBORO SUNNY 64 63 94 SW9 29.98S ALLENDALE FAIR 66 63 88 CALM 29.96F ...SOUTHERN MIDLANDS AND PEE DEE... CITY SKY/WX TMP DP RH WIND PRES REMARKS GEORGETOWN NOT AVBL KINGSTREE NOT AVBL ORANGEBURG CLEAR 64 59 83 SW9 29.96S BARNWELL FAIR 64 61 88 SW6 29.96F AIKEN CLOUDY 66 63 88 SW13 29.97F MANNING FAIR 64 64 100 S6 29.95F COLUMBIA MOCLDY 67 59 75 SW8 29.92F SUMTER PTCLDY 64 60 85 SW13 29.92S FLORENCE CLEAR 65 60 84 SW12 29.93F MYRTLE BEACH CLEAR 63 57 82 S8 29.98S N MYRTLE BEACH CLOUDY 59 59 100 SW13G26 29.96S FOG $$ GAZ063-065-086>088-099>101-113>116-118-119-134>141-150-050900- ...SOUTHEAST GEORGIA... CITY SKY/WX TMP DP RH WIND PRES REMARKS SAVANNAH ARPT CLEAR 62 59 90 S8 30.00F HUNTER AAF MOCLDY 60 60 100 S7 29.99F FORT STEWART CLEAR 66 63 90 S5 29.98F STATESBORO CLEAR 66 66 100 SW5 29.98F SYLVANIA SUNNY 67 65 93 SW9 29.99S CLAXTON FAIR 66 64 94 W3 29.99S ...CSRA...CENTRAL AND FAR SOUTHEAST GEORGIA... CITY SKY/WX TMP DP RH WIND PRES REMARKS THOMSON CLOUDY 69 66 90 S13G20 29.96F AUGUSTA-BUSH MOCLDY 66 61 84 SW7 29.96S AUGUSTA-DANIEL MOCLDY 68 62 81 S15G24 29.94F SWAINSBORO CLOUDY 70 64 83 SW5 29.99S VIDALIA PTCLDY 64 64 100 SW5 29.99F EASTMAN CLOUDY 68 68 100 SW7G17 30.00S HAZLEHURST FAIR 68 67 96 SW5 29.98F ALMA CLOUDY 65 64 97 VRB3 30.01F WAYCROSS PTCLDY 70 68 95 SW6 30.01F JESUP CLOUDY 68 66 94 CALM 30.01F BAXLEY FAIR 66 64 94 S6 29.99F BRUNSWICK CLOUDY 66 63 88 S7 30.04S SAINT SIMONS CLOUDY 63 60 90 S6 30.04S $$ SCZ027-028-034-036>038-045-046-048>050-GAZ119-141-050900- ...LAKE AND SUPPLEMENTAL COASTAL OBSERVATIONS... STATION/POSITION TIME TEMP WIND PRES WAVE SWELL AIR SEA DIR/SP/G HT/PER HT/PER/DIR (UTC) (F) (DEG/KT/KT) (MB) (FT/S) (FT/S/D) UPR LAKE MARION NOT AVBL WINYAH BAY NOT AVBL LAKE MURRAY 0700 65 220/ 9/ 12 1013.2R ACE BASIN NERRS NOT AVBL FORT PULASKI 0800 58 52 190/ 4/ 7 1016.6 SAPELO ISLAND 0700 59 160/ 6 1017.0S $$ ANZ835-935-AMZ111-154-330-350-352-354-370-450-454-472-050900- ...C-MAN AND BUOY OBSERVATIONS... STATION/POSITION TIME TEMP WIND PRES WAVE SWELL AIR SEA DIR/SP/G HT/PER HT/PER/DIR (UTC) (F) (DEG/KT/KT) (MB) (FT/S) (FT/S/D) BUOY 41004 0750 70 69 210/ 17/ 21 1015.5F 6/ 6 3/ 8 BUOY 41008 0750 58 54 200/ 10/ 10 1017.0F 4/ 6 3/110/ 6 FOLLY BEACH CMAN 0800 54 220/ 9/ 10 1016.3F CAPERS NEARSHORE 0700 52 220/ 8/ 10 N/A FRIPP NEARSHORE 0700 55 200/ 14/ 16 1016.6F STATION/POSITION TIME TEMP WIND PRES WAVE SWELL AIR SEA DIR/SP/G HT/PER HT/PER/DIR (UTC) (F) (DEG/KT/KT) (MB) (FT/S) (FT/S/D) 5E ST. MARYS GA 0721 55 N/A 3/ 5 2/120/11 FRYING PAN BUOY 0750 68 62 210/ 16/ 19 1016.1F 7/ 7 BUOY 41025 NOT AVBL CAPE LOOKOUT NC 0800 59 220/ 9/ 12 1015.0F BUOY 41002 0750 73 73 220/ 19/ 23 1019.4F 6/ 9 3/130/ 9 BUOY 41010 0720 74 75 170/ 17/ 21 1019.2F ST AUGUSTINE FL 0800 60 180/ 7/ 8 1018.1F $$

USA.gov is the U.S. government's official web portal to all federal, state and local government web resources and services.